Regional Weather Roundup
Issued by NWS

Home | Current Version | Previous Version | Graphics & Text | Print | Product List | Glossary On
Versions: 1 2 3 4 5 6 7 8 9 10 11 12 13 14 15 16 17 18 19 20 21 22 23 24 25 26 27 28 29 30 31 32 33 34 35 36 37 38 39 40 41 42 43 44 45 46 47 48 49 50
000
ASUS43 KTOP 242159
RWRKS

WEATHER ROUNDUP FOR KANSAS
NATIONAL WEATHER SERVICE GOODLAND KS
500 PM CDT THU MAY 24 2018

NOTE:  "FAIR" INDICATES FEW OR NO CLOUDS BELOW 12,000 FEET WITH NO
SIGNIFICANT WEATHER AND/OR OBSTRUCTIONS TO VISIBILITY.

KSZ001>006-013>018-027>032-041>047-242300-
NORTHWEST KANSAS

CITY           SKY/WX    TMP DP  RH WIND       PRES   REMARKS
GOODLAND       MOSUNNY   86  54  33 NW6       29.98F
HAYS           SUNNY     85  65  51 S17       29.94F HAZE
HILL CITY      SUNNY     89  62  40 S14G22    29.91F
RUSSELL        SUNNY     86  65  49 S17       29.93F
$$

KSZ061>065-074>080-084>089-242300-
SOUTHWEST KANSAS

CITY           SKY/WX    TMP DP  RH WIND       PRES   REMARKS
DODGE CITY     MOSUNNY   91  59  33 S17G25    29.95F
GARDEN CITY    SUNNY     89  52  28 S18G28    29.94F
GREAT BEND     SUNNY     82  68  62 S14       29.96F
LIBERAL        SUNNY     90  57  32 S18G28    29.97F
$$

KSZ066>073-081>083-090>101-242300-
SOUTHEAST KANSAS

CITY           SKY/WX    TMP DP  RH WIND       PRES   REMARKS
CHANUTE        CLOUDY    84  73  69 S14       29.99F
COFFEYVILLE    CLOUDY    84  70  62 S13       29.98F
HUTCHINSON     CLOUDY    85  67  54 S10       29.96F
NEWTON         PTSUNNY   83  68  60 S14G20    29.99F
PARSONS        MOSUNNY   84  72  67 S7        30.00F
WICHITA INTL   CLOUDY    86  69  56 S7        29.96F
WICHITA JABRA  MOSUNNY   81  71  71 SE6       29.98F
WICHITA MCCONL MOSUNNY   82  69  65 SE16      29.98S
WINFIELD       PTSUNNY   82  71  69 S16G24    29.97F
$$

KSZ007>012-019>026-033>040-048>060-102>105-242300-
NORTHEAST KANSAS

CITY           SKY/WX    TMP DP  RH WIND       PRES   REMARKS
CONCORDIA      CLOUDY    82  61  48 SW13G21   29.95F
EMPORIA        CLOUDY    66  64  93 SE7       30.00F
LAWRENCE       CLOUDY    71  68  90 E7        30.00F
MANHATTAN      CLOUDY    82  61  48 S13G28    29.97R
OLATHE IND     LGT RAIN  76  71  85 W12       30.04S
OLATHE EXE     CLOUDY    78  69  73 S5        30.03S
SALINA         CLOUDY    84  62  47 S15       29.95F
TOPEKA BILLARD CLOUDY    76  68  76 E13       30.01R THUNDER
TOPEKA FORBES  TSTM      71  68  90 SW17G33   30.05R VSB 1
$$




USA.gov is the U.S. government's official web portal to all federal, state and local government web resources and services.